Visibility
7.5 15.0 15.0 15.0 15.0 15.0 15.0 0.9 12.1 0.0 15.0 15.0 15.0 15.0 15.0 15.0 15.0 15.0 15.0 15.0 15.0 4.3 3.7 3.9 3.8 4.2 6.0 4.4 4.4 6.6 13.1 9.5 10.9 15.0 14.8 8.4 7.9 7.0
15.0 15.0 15.0 15.0 15.0 15.0 15.0 15.0 14.4 0.1 0.1 5.5 15.0 15.0 15.0 15.0 15.0 15.0 15.0 15.0 15.0 10.5 3.2 4.7 3.6 3.0 6.6 4.4 8.4 14.2 15.0 15.0 15.0 10.6 6.5 9.6 8.2 11.1
15.0 15.0 15.0 15.0 15.0 15.0 15.0 15.0 15.0 15.0 0.1 11.4 15.0 15.0 11.4 6.9 15.0 15.0 15.0 15.0 14.2 11.7 4.4 5.6 5.4 8.1 10.8 12.9 11.4 11.7 12.4 14.2 15.0 15.0 15.0 15.0 15.0 15.0
15.0 15.0 15.0 15.0 15.0 15.0 15.0 15.0 15.0 15.0 7.3 13.3 1.4 0.7 0.2 0.9 6.7 15.0 15.0 15.0 15.0 14.8 15.0 15.0 15.0 8.3 14.5 15.0 15.0 15.0 15.0 15.0 15.0 15.0 15.0 15.0 15.0 15.0
15.0 15.0 15.0 15.0 15.0 15.0 15.0 15.0 15.0 15.0 15.0 15.0 1.5 15.0 4.2 15.0 15.0 14.3 15.0 15.0 15.0 15.0 15.0 15.0 15.0 15.0 15.0 15.0 15.0 15.0 15.0 15.0 15.0 15.0 15.0 15.0 15.0 15.0
15.0 15.0 15.0 15.0 15.0 15.0 15.0 15.0 15.0 15.0 15.0 15.0 15.0 13.0 10.6 0.5 0.0 0.0 0.0 0.0 0.0 15.0 15.0 15.0 15.0 15.0 15.0 15.0 15.0 15.0 15.0 15.0 15.0 15.0 15.0 15.0 15.0 15.0
15.0 15.0 15.0 15.0 15.0 15.0 13.4 15.0 15.0 15.0 15.0 15.0 15.0 15.0 15.0 14.8 14.2 6.4 15.0 15.0 15.0 15.0 15.0 15.0 15.0 15.0 15.0 15.0 15.0 15.0 15.0 15.0 15.0 15.0 15.0 15.0 15.0 15.0
15.0 15.0 15.0 15.0 15.0 15.0 15.0 15.0 15.0 15.0 15.0 10.4 7.6 15.0 15.0 15.0 15.0 15.0 9.4 15.0 15.0 15.0 15.0 15.0 15.0 15.0 15.0 15.0 15.0 15.0 15.0 15.0 15.0 15.0 15.0 15.0 15.0 15.0
15.0 15.0 15.0 15.0 15.0 15.0 15.0 15.0 15.0 15.0 15.0 15.0 15.0 15.0 15.0 15.0 15.0 15.0 15.0 15.0 15.0 15.0 15.0 15.0 15.0 15.0 15.0 15.0 15.0 15.0 15.0 15.0 15.0 15.0 15.0 15.0 15.0 15.0
15.0 15.0 15.0 15.0 15.0 15.0 15.0 15.0 15.0 15.0 15.0 15.0 15.0 15.0 15.0 15.0 15.0 15.0 15.0 15.0 15.0 15.0 15.0 5.2 15.0 15.0 15.0 15.0 15.0 15.0 15.0 15.0 15.0 15.0 15.0 15.0 15.0 15.0
15.0 15.0 15.0 15.0 15.0 15.0 15.0 15.0 15.0 15.0 15.0 15.0 15.0 15.0 15.0 15.0 15.0 15.0 15.0 7.0 14.8 15.0 15.0 8.9 11.5 12.3 15.0 15.0 15.0 15.0 15.0 15.0 15.0 15.0 15.0 15.0 15.0 15.0
15.0 15.0 15.0 15.0 15.0 15.0 15.0 15.0 15.0 15.0 15.0 15.0 15.0 15.0 15.0 15.0 15.0 15.0 12.1 4.1 4.1 15.0 15.0 7.8 7.0 7.8 6.9 15.0 15.0 15.0 15.0 15.0 15.0 15.0 15.0 15.0 15.0 15.0
15.0 15.0 15.0 15.0 15.0 15.0 15.0 15.0 15.0 15.0 15.0 15.0 15.0 15.0 15.0 15.0 15.0 15.0 15.0 15.0 4.1 11.0 15.0 4.4 1.0 15.0 7.6 14.5 15.0 15.0 15.0 15.0 15.0 15.0 15.0 15.0 15.0 15.0
15.0 15.0 15.0 15.0 15.0 15.0 15.0 15.0 15.0 15.0 15.0 15.0 15.0 9.6 9.8 7.8 11.5 15.0 15.0 15.0 15.0 15.0 15.0 15.0 0.5 1.3 3.2 4.7 7.1 15.0 15.0 15.0 15.0 15.0 15.0 15.0 15.0 15.0
15.0 15.0 15.0 15.0 15.0 15.0 15.0 15.0 15.0 15.0 15.0 15.0 11.2 9.7 5.4 7.7 5.6 10.1 15.0 15.0 15.0 15.0 15.0 15.0 4.3 3.6 0.4 0.6 1.3 9.1 15.0 13.9 7.2 15.0 14.2 15.0 15.0 15.0
15.0 15.0 15.0 15.0 15.0 15.0 15.0 15.0 15.0 15.0 15.0 15.0 5.4 5.5 5.2 7.0 15.0 13.1 8.2 10.2 8.8 6.2 15.0 1.3 7.2 4.4 0.5 1.7 0.9 2.5 15.0 1.7 2.9 6.4 9.3 15.0 15.0 15.0
15.0 15.0 15.0 15.0 15.0 15.0 15.0 15.0 15.0 15.0 8.4 5.6 4.9 9.2 13.5 13.9 14.9 11.8 8.4 9.2 1.2 5.3 8.8 10.4 15.0 11.3 12.6 14.5 1.0 13.0 15.0 15.0 15.0 15.0 13.5 2.6 15.0 15.0
15.0 15.0 15.0 15.0 15.0 15.0 15.0 15.0 15.0 15.0 11.9 5.7 6.9 11.6 15.0 15.0 10.4 9.9 3.2 0.8 0.8 5.1 10.4 5.1 4.3 7.4 7.4 15.0 15.0 13.9 15.0 14.3 15.0 15.0 15.0 1.2 11.2 15.0
15.0 15.0 15.0 15.0 15.0 15.0 15.0 4.6 5.7 15.0 6.2 4.1 4.1 4.1 4.2 4.2 15.0 14.6 14.7 2.4 1.9 5.5 15.0 4.8 3.1 0.8 0.5 1.6 15.0 15.0 11.3 15.0 15.0 13.3 14.9 14.2 14.8 15.0
15.0 15.0 15.0 15.0 15.0 15.0 15.0 5.7 13.0 12.4 4.1 4.1 4.1 4.1 4.1 3.7 1.1 0.9 3.0 3.9 6.0 10.5 5.9 4.3 3.1 1.4 0.1 0.2 0.3 14.8 15.0 15.0 15.0 15.0 15.0 15.0 15.0 15.0
15.0 15.0 15.0 15.0 15.0 15.0 15.0 15.0 4.3 7.7 0.4 4.1 4.1 4.1 4.1 3.1 4.0 4.3 3.8 15.0 13.9 11.2 2.1 15.0 15.0 12.1 0.1 0.1 0.2 13.9 15.0 15.0 15.0 15.0 15.0 1.4 1.6 14.5
15.0 15.0 15.0 15.0 15.0 15.0 15.0 5.0 4.3 4.2 4.1 4.5 13.1 4.1 4.2 4.1 4.1 5.8 5.6 1.3 2.1 1.0 1.8 15.0 15.0 13.5 0.7 0.3 4.2 15.0 15.0 15.0 15.0 15.0 15.0 14.2 7.1 1.0
15.0 15.0 15.0 15.0 15.0 15.0 5.2 4.1 4.1 15.0 15.0 15.0 4.1 4.7 4.0 0.6 1.2 0.4 0.5 0.6 0.5 0.6 5.1 2.1 15.0 5.3 0.8 1.0 3.3 2.0 14.6 15.0 15.0 15.0 15.0 15.0 15.0 15.0